SB KEPS @ AMSAT $ORB14240.O Orbital Elements 14240.OSCAR
HR AMSAT ORBITAL ELEMENTS FOR OSCAR SATELLITES FROM WA5QGD FORT WORTH,TX August 28, 2014 BID: ORB14240.O TO ALL RADIO AMATEURS BT
Satellite: AO-07 Catalog number: 07530 Epoch time: 14237.88535572 Element set: 47 Inclination: 101.4796 deg RA of node: 217.4395 deg Eccentricity: 0.0012081 Arg of perigee: 156.8947 deg Mean anomaly: 268.3787 deg Mean motion: 12.53606608 rev/day Decay rate: -3.9e-07 rev/day^2 Epoch rev: 82025 Checksum: 323
Satellite: FO-29 Catalog number: 24278 Epoch time: 14238.09992733 Element set: 449 Inclination: 098.5142 deg RA of node: 242.3111 deg Eccentricity: 0.0351564 Arg of perigee: 116.2187 deg Mean anomaly: 288.9718 deg Mean motion: 13.53027812 rev/day Decay rate: -5.0e-08 rev/day^2 Epoch rev: 89012 Checksum: 317
Satellite: SO-33 Catalog number: 25509 Epoch time: 14238.11496791 Element set: 822 Inclination: 031.4313 deg RA of node: 124.1557 deg Eccentricity: 0.0349080 Arg of perigee: 007.0259 deg Mean anomaly: 111.5795 deg Mean motion: 14.29577990 rev/day Decay rate: 4.51e-06 rev/day^2 Epoch rev: 82716 Checksum: 308
Satellite: RS-22 Catalog number: 27939 Epoch time: 14238.36551470 Element set: 795 Inclination: 097.8155 deg RA of node: 049.0467 deg Eccentricity: 0.0012026 Arg of perigee: 243.8620 deg Mean anomaly: 116.1332 deg Mean motion: 14.65288064 rev/day Decay rate: 6.08e-06 rev/day^2 Epoch rev: 58300 Checksum: 306
Satellite: HO-68 Catalog number: 36122 Epoch time: 14238.18795362 Element set: 885 Inclination: 100.2418 deg RA of node: 287.9118 deg Eccentricity: 0.0007636 Arg of perigee: 079.1569 deg Mean anomaly: 281.0414 deg Mean motion: 13.16317548 rev/day Decay rate: -4.3e-07 rev/day^2 Epoch rev: 22564 Checksum: 316
Satellite: AO-73 Catalog number: 39444 Epoch time: 14238.07106011 Element set: 230 Inclination: 097.7665 deg RA of node: 306.3315 deg Eccentricity: 0.0062383 Arg of perigee: 017.1705 deg Mean anomaly: 343.1613 deg Mean motion: 14.78510582 rev/day Decay rate: 1.147e-05 rev/day^2 Epoch rev: 3979 Checksum: 289
Satellite: EO-79 Catalog number: 40025 Epoch time: 14239.56128118 Element set: 192 Inclination: 097.9756 deg RA of node: 134.3288 deg Eccentricity: 0.0014825 Arg of perigee: 067.1780 deg Mean anomaly: 293.1514 deg Mean motion: 14.85355070 rev/day Decay rate: 1.364e-05 rev/day^2 Epoch rev: 1018 Checksum: 307
/EX SB KEPS @ AMSAT $ORB14240.D Orbital Elements 14240.MICROS
HR AMSAT ORBITAL ELEMENTS FOR THE MICROSATS FROM WA5QGD FORT WORTH,TX August 28, 2014 BID: ORB14240.D TO ALL RADIO AMATEURS BT
Satellite: UO-11 Catalog number: 14781 Epoch time: 14237.25369615 Element set: 582 Inclination: 097.8455 deg RA of node: 296.0140 deg Eccentricity: 0.0007433 Arg of perigee: 321.6506 deg Mean anomaly: 038.4178 deg Mean motion: 14.81692773 rev/day Decay rate: 5.45e-06 rev/day^2 Epoch rev: 63819 Checksum: 322
Satellite: AO-16 Catalog number: 20439 Epoch time: 14237.81443972 Element set: 98 Inclination: 098.5095 deg RA of node: 173.8495 deg Eccentricity: 0.0009871 Arg of perigee: 317.7716 deg Mean anomaly: 095.7084 deg Mean motion: 14.32378061 rev/day Decay rate: 1.01e-06 rev/day^2 Epoch rev: 28445 Checksum: 330
Satellite: LO-19 Catalog number: 20442 Epoch time: 14236.87225418 Element set: 36 Inclination: 098.4804 deg RA of node: 173.3724 deg Eccentricity: 0.0010689 Arg of perigee: 308.2504 deg Mean anomaly: 051.7717 deg Mean motion: 14.32578675 rev/day Decay rate: 7.7e-07 rev/day^2 Epoch rev: 28451 Checksum: 311
Satellite: AO-27 Catalog number: 22825 Epoch time: 14237.12584674 Element set: 745 Inclination: 098.6671 deg RA of node: 182.8553 deg Eccentricity: 0.0009628 Arg of perigee: 096.8356 deg Mean anomaly: 330.9526 deg Mean motion: 14.29737627 rev/day Decay rate: 5.0e-07 rev/day^2 Epoch rev: 9063 Checksum: 339
Satellite: IO-26 Catalog number: 22826 Epoch time: 14237.09352689 Element set: 502 Inclination: 098.6612 deg RA of node: 183.0316 deg Eccentricity: 0.0010149 Arg of perigee: 090.1753 deg Mean anomaly: 270.0592 deg Mean motion: 14.30039906 rev/day Decay rate: 7.1e-07 rev/day^2 Epoch rev: 9076 Checksum: 289
Satellite: GO-32 Catalog number: 25397 Epoch time: 14237.81928282 Element set: 425 Inclination: 098.4758 deg RA of node: 193.2333 deg Eccentricity: 0.0002479 Arg of perigee: 105.1151 deg Mean anomaly: 310.5430 deg Mean motion: 14.23456104 rev/day Decay rate: 3.2e-07 rev/day^2 Epoch rev: 83777 Checksum: 294
Satellite: NO-44 Catalog number: 26931 Epoch time: 14237.28018356 Element set: 680 Inclination: 067.0509 deg RA of node: 220.2832 deg Eccentricity: 0.0007245 Arg of perigee: 279.3731 deg Mean anomaly: 080.6551 deg Mean motion: 14.30139659 rev/day Decay rate: 3.5e-07 rev/day^2 Epoch rev: 67348 Checksum: 302
Satellite: SO-50 Catalog number: 27607 Epoch time: 14237.77102131 Element set: 482 Inclination: 064.5582 deg RA of node: 020.2101 deg Eccentricity: 0.0056190 Arg of perigee: 351.4687 deg Mean anomaly: 008.5454 deg Mean motion: 14.73868440 rev/day Decay rate: 4.51e-06 rev/day^2 Epoch rev: 62773 Checksum: 287
Satellite: CO-55 Catalog number: 27844 Epoch time: 14238.02500590 Element set: 0 Inclination: 098.6994 deg RA of node: 245.7933 deg Eccentricity: 0.0010809 Arg of perigee: 077.3804 deg Mean anomaly: 340.4383 deg Mean motion: 14.21543073 rev/day Decay rate: 1.74e-06 rev/day^2 Epoch rev: 57850 Checksum: 301
Satellite: CO-57 Catalog number: 27848 Epoch time: 14237.28345355 Element set: 941 Inclination: 098.7088 deg RA of node: 244.8110 deg Eccentricity: 0.0010806 Arg of perigee: 085.2134 deg Mean anomaly: 036.7572 deg Mean motion: 14.21225139 rev/day Decay rate: 1.12e-06 rev/day^2 Epoch rev: 57831 Checksum: 303
Satellite: AO-51 Catalog number: 28375 Epoch time: 14237.27657306 Element set: 916 Inclination: 098.2553 deg RA of node: 181.8519 deg Eccentricity: 0.0084086 Arg of perigee: 143.0004 deg Mean anomaly: 217.7025 deg Mean motion: 14.41413526 rev/day Decay rate: 9.6e-07 rev/day^2 Epoch rev: 53386 Checksum: 309
Satellite: CP3 Catalog number: 31129 Epoch time: 14236.94522395 Element set: 828 Inclination: 097.9410 deg RA of node: 211.4716 deg Eccentricity: 0.0099212 Arg of perigee: 156.0617 deg Mean anomaly: 269.4714 deg Mean motion: 14.54791171 rev/day Decay rate: 4.48e-06 rev/day^2 Epoch rev: 39003 Checksum: 306
Satellite: CO-65 Catalog number: 32785 Epoch time: 14238.15613134 Element set: 37 Inclination: 097.6927 deg RA of node: 287.1363 deg Eccentricity: 0.0012437 Arg of perigee: 322.5952 deg Mean anomaly: 103.3461 deg Mean motion: 14.85467929 rev/day Decay rate: 8.39e-06 rev/day^2 Epoch rev: 34241 Checksum: 320
Satellite: PRISM Catalog number: 33493 Epoch time: 14238.34092947 Element set: 233 Inclination: 098.2526 deg RA of node: 057.0071 deg Eccentricity: 0.0016772 Arg of perigee: 211.5965 deg Mean anomaly: 148.4260 deg Mean motion: 14.89795700 rev/day Decay rate: 2.845e-05 rev/day^2 Epoch rev: 30262 Checksum: 305
Satellite: SOHLA-1 Catalog number: 33496 Epoch time: 14238.05234213 Element set: 437 Inclination: 098.1782 deg RA of node: 359.1863 deg Eccentricity: 0.0006564 Arg of perigee: 032.8583 deg Mean anomaly: 021.9716 deg Mean motion: 14.70864988 rev/day Decay rate: 2.73e-06 rev/day^2 Epoch rev: 29978 Checksum: 336
Satellite: TISAT-1 Catalog number: 36799 Epoch time: 14238.25711133 Element set: 495 Inclination: 098.0166 deg RA of node: 330.7898 deg Eccentricity: 0.0015001 Arg of perigee: 091.3592 deg Mean anomaly: 268.9350 deg Mean motion: 14.85925856 rev/day Decay rate: 1.847e-05 rev/day^2 Epoch rev: 22312 Checksum: 323
Satellite: STUDSAT Catalog number: 36801 Epoch time: 14240.89922940 Element set: 876 Inclination: 098.0384 deg RA of node: 342.9802 deg Eccentricity: 0.0009784 Arg of perigee: 064.3614 deg Mean anomaly: 295.9119 deg Mean motion: 14.97873250 rev/day Decay rate: 4.9565e-04 rev/day^2 Epoch rev: 22401 Checksum: 332
Satellite: ALMASAT-1 Catalog number: 38078 Epoch time: 14237.48121304 Element set: 122 Inclination: 069.4660 deg RA of node: 251.7051 deg Eccentricity: 0.0584745 Arg of perigee: 299.6141 deg Mean anomaly: 174.2581 deg Mean motion: 14.53081573 rev/day Decay rate: 2.6493e-04 rev/day^2 Epoch rev: 13169 Checksum: 306
Satellite: XATCOBEO Catalog number: 38082 Epoch time: 14241.00273453 Element set: 547 Inclination: 069.4177 deg RA of node: 104.4271 deg Eccentricity: 0.0056002 Arg of perigee: 219.4305 deg Mean anomaly: 140.3067 deg Mean motion: 16.12835112 rev/day Decay rate: 2.271527e-02 rev/day^2 Epoch rev: 13585 Checksum: 267
Satellite: CUBEBUG-1 Catalog number: 39153 Epoch time: 14238.23390097 Element set: 419 Inclination: 098.0384 deg RA of node: 318.3865 deg Eccentricity: 0.0018615 Arg of perigee: 123.3801 deg Mean anomaly: 236.9185 deg Mean motion: 14.77856656 rev/day Decay rate: 9.32e-06 rev/day^2 Epoch rev: 7190 Checksum: 322
Satellite: ESTCUBE-1 Catalog number: 39161 Epoch time: 14238.32989950 Element set: 416 Inclination: 098.0942 deg RA of node: 318.7051 deg Eccentricity: 0.0010289 Arg of perigee: 164.0444 deg Mean anomaly: 196.1103 deg Mean motion: 14.70109745 rev/day Decay rate: 6.83e-06 rev/day^2 Epoch rev: 6990 Checksum: 305
Satellite: DUCHIFAT-1 Catalog number: 40021 Epoch time: 14239.55564429 Element set: 197 Inclination: 097.9742 deg RA of node: 134.3485 deg Eccentricity: 0.0015915 Arg of perigee: 069.3886 deg Mean anomaly: 290.9549 deg Mean motion: 14.85509549 rev/day Decay rate: 2.410e-05 rev/day^2 Epoch rev: 1024 Checksum: 322
Satellite: NANOSATCBR1 Catalog number: 40024 Epoch time: 14239.42543940 Element set: 190 Inclination: 097.9756 deg RA of node: 134.1911 deg Eccentricity: 0.0014787 Arg of perigee: 066.3746 deg Mean anomaly: 293.9535 deg Mean motion: 14.85395221 rev/day Decay rate: 1.590e-05 rev/day^2 Epoch rev: 1022 Checksum: 297
Satellite: DTUSAT-2 Catalog number: 40030 Epoch time: 14239.64564162 Element set: 187 Inclination: 097.9719 deg RA of node: 134.3600 deg Eccentricity: 0.0014013 Arg of perigee: 060.5416 deg Mean anomaly: 299.7708 deg Mean motion: 14.84986645 rev/day Decay rate: 1.308e-05 rev/day^2 Epoch rev: 1022 Checksum: 291
